Weather History for San Jose, Costa Rica

Change the Weather History Date:

Tuesday, January 2, 2001

  Actual Average Record
Temperature  
Mean Temperature 72 °F -  
Max Temperature 75 °F 80 °F 86 °F (2002)
Min Temperature 68 °F 63 °F 62 °F (1997)
Cooling Degree Days 6    
Growing Degree Days 22 (Base 50)    
Moisture  
Dew Point 66 °F    
Average Humidity 85    
Maximum Humidity 100    
Minimum Humidity 69    
Precipitation  
Precipitation 0.00 in 0.01 in - ()
Sea Level Pressure  
Sea Level Pressure 29.97 in    
Wind  
Wind Speed 10 mph ()    
Max Wind Speed 23 mph    
Max Gust Speed -    
Visibility 5.5 miles    
Events Rain    
Averages and records for this station are not official NWS values.
T = Trace of Precipitation, MM = Missing Value Source: Averaged Metar Reports

Daily Weather History Graph

Daily Weather History Graph

Search for Another Location

Airport:

Trip Planner

Search our weather history database for the weather conditions in past years. The results will help you decide how hot, cold, wet, or windy it might be!

Date:

Astronomy

Jan. 02, 2001 Rise Set
Actual Time 5:54 AM CST 5:27 PM CST
Civil Twilight 5:31 AM CST 5:50 PM CST
Nautical Twilight 5:05 AM CST 6:16 PM CST
Astronomical Twilight 4:39 AM CST 6:42 PM CST
Moon 11:32 AM CST (1/2) 11:54 PM CST (1/2)
Length of Visible Light 12h 18m
Length of Day
11h 33m
Waxing Crescent, 48% of the Moon is Illuminated
Jan 2
Waxing Crescent
Jan 2
First Quarter
Jan 9
Full
Jan 16
Last Quarter
Jan 24
New

Hourly Weather History & Observations

Time (CST) Temp. Dew Point Humidity Pressure Visibility Wind Dir Wind Speed Gust Speed Precip Events Conditions
12:00 AM 68.0 °F 64.4 °F 88% 29.96 in - ENE 10.4 mph - N/A   Clear
1:00 AM 69.8 °F 64.4 °F 83% 29.96 in - NE 9.2 mph - N/A   Clear
2:00 AM 68.0 °F 64.4 °F 88% 29.93 in - ESE 13.8 mph - N/A   Clear
3:00 AM 68.0 °F 64.4 °F 88% 29.98 in - ESE 8.1 mph - N/A   Clear
4:00 AM 68.0 °F 64.4 °F 88% 29.94 in - ESE 10.4 mph - N/A   Clear
5:00 AM 68.0 °F 66.2 °F 94% 29.95 in 6.2 mi SE 9.2 mph - N/A   Partly Cloudy
6:00 AM 69.8 °F 66.2 °F 88% 29.96 in 6.2 mi ESE 15.0 mph - N/A   Mostly Cloudy
7:00 AM 71.6 °F 66.2 °F 83% 29.99 in 6.2 mi East 9.2 mph - N/A   Mostly Cloudy
8:00 AM 75.2 °F 68.0 °F 78% 30.00 in 6.2 mi ENE 6.9 mph - N/A   Mostly Cloudy
9:00 AM 75.2 °F 66.2 °F 73% 30.04 in 6.2 mi East 9.2 mph - N/A   Mostly Cloudy
9:08 AM 73.4 °F 66.2 °F 78% 30.04 in - North - - N/A Rain Light Rain
9:18 AM 71.6 °F 66.2 °F 83% 30.05 in 3.1 mi East 11.5 mph - N/A Rain Rain
10:00 AM 69.8 °F 69.8 °F 100% 30.04 in 3.7 mi East 4.6 mph - N/A Rain Light Rain
11:00 AM 68.0 °F 68.0 °F 100% 30.02 in 2.5 mi East 9.2 mph - N/A Rain Rain
11:51 AM 68.0 °F 68.0 °F 100% 30.00 in 3.7 mi East 5.8 mph - N/A Rain Light Rain
12:00 PM 69.8 °F 68.0 °F 94% 30.00 in 4.3 mi East 5.8 mph - N/A Rain Light Rain
1:00 PM 69.8 °F 66.2 °F 88% 29.98 in 6.2 mi ESE 11.5 mph - N/A   Overcast
2:00 PM 75.2 °F 66.2 °F 73% 29.92 in 6.2 mi ESE 19.6 mph - N/A   Mostly Cloudy
3:00 PM 75.2 °F 64.4 °F 69% 29.91 in 6.2 mi ESE 23.0 mph - N/A   Mostly Cloudy
3:16 PM 73.4 °F 66.2 °F 78% 29.92 in 6.2 mi ESE 20.7 mph - N/A Rain Light Rain
4:00 PM 69.8 °F 66.2 °F 88% 29.94 in 6.2 mi East 18.4 mph - N/A Rain Light Rain
5:00 PM 68.0 °F 66.2 °F 94% 29.96 in 6.2 mi East 8.1 mph - N/A Rain Light Rain
6:00 PM 69.8 °F 64.4 °F 83% 29.96 in 6.2 mi East 11.5 mph - N/A   Overcast
7:00 PM 69.8 °F 64.4 °F 83% 29.97 in 6.2 mi ESE 10.4 mph - N/A   Mostly Cloudy
8:00 PM 69.8 °F 64.4 °F 83% 29.97 in 6.2 mi ESE 6.9 mph - N/A   Mostly Cloudy
9:00 PM 71.6 °F 64.4 °F 78% 29.97 in - ESE 13.8 mph - N/A   Clear
10:00 PM 71.6 °F 62.6 °F 73% 29.96 in - East 19.6 mph - N/A   Clear
11:00 PM 71.6 °F 62.6 °F 73% 29.96 in - East 17.3 mph - N/A   Clear